Temp
16 16 16 16 16 17 17 17 17 17 18 18 19 19 20 20 21 21 22 23 23 23 23 23 24 24 25 20 17 17 17 18 21 22 23 27 27 26 26 24 24 24 23 22 22
16 16 16 16 17 17 17 17 17 17 18 18 19 19 20 21 21 22 23 23 23 23 24 24 24 25 26 20 16 16 16 18 18 19 21 25 27 27 26 25 24 24 23 22 22
16 16 17 17 17 17 17 18 18 18 18 18 19 19 20 20 21 22 24 23 23 24 24 24 25 26 23 22 19 16 19 20 20 19 20 22 27 28 26 24 24 24 24 23 23
16 16 17 17 17 18 18 18 18 18 18 18 19 19 20 20 22 23 23 24 24 24 24 24 25 27 23 21 19 19 22 21 19 20 21 24 25 24 26 25 24 24 24 24 23
16 17 17 18 18 18 18 18 18 18 18 19 19 19 20 20 22 23 24 24 24 24 25 24 26 27 23 22 20 19 19 24 23 20 20 21 25 24 25 24 25 24 24 24 24
17 17 18 18 19 19 19 19 19 19 19 19 19 20 20 19 24 23 24 24 24 24 25 26 27 27 25 21 20 20 19 25 22 21 20 22 21 25 26 25 25 24 24 24 23
17 18 18 19 19 20 20 20 19 19 20 20 21 21 20 22 24 23 24 24 25 25 25 26 27 27 26 21 22 24 21 24 23 20 21 22 22 23 27 26 25 25 24 24 23
17 18 19 20 20 20 21 21 20 20 21 21 21 21 22 24 24 24 24 24 25 25 26 26 27 27 27 24 23 18 22 21 22 23 20 22 19 20 24 26 26 25 24 24 23
18 19 20 20 20 21 21 21 21 22 21 21 20 20 22 24 24 24 25 26 26 25 26 26 26 26 27 24 20 20 20 22 23 23 22 22 20 20 23 23 25 25 24 24 24
18 19 20 20 20 21 22 22 22 22 22 22 21 19 23 25 25 25 25 25 26 26 27 27 26 23 24 24 20 20 21 21 20 22 23 22 21 18 21 20 21 26 24 24 24
19 20 20 20 21 22 22 22 22 23 22 23 25 25 26 26 25 25 25 26 26 27 24 27 23 23 25 28 28 24 22 19 18 19 21 21 20 18 20 20 21 22 25 24 24
19 20 20 21 21 22 22 22 24 25 24 25 26 27 26 26 26 26 26 26 26 24 25 25 23 26 30 29 28 28 22 20 19 20 22 21 21 18 19 21 21 20 22 24 23
19 20 20 21 22 23 22 23 25 25 24 26 27 27 27 27 27 26 26 27 26 25 25 24 26 29 29 29 28 28 24 21 22 21 24 20 20 18 19 19 22 22 22 22 24
19 20 21 21 22 22 23 25 25 25 21 26 27 28 27 27 28 27 27 27 27 26 26 27 28 30 28 29 28 26 27 26 25 22 20 21 19 19 19 19 19 20 22 22 24
19 20 20 21 22 23 24 25 25 25 20 28 28 28 28 28 27 27 27 27 26 27 29 25 28 28 28 28 29 26 28 27 26 22 21 21 19 19 18 19 18 19 21 21 22
19 20 20 21 22 23 23 24 25 22 23 28 29 28 27 28 29 28 27 27 27 27 28 27 30 29 29 29 29 29 27 26 26 22 20 21 20 18 17 19 18 19 21 23 23
20 20 20 20 23 23 23 24 21 22 29 28 28 28 28 28 28 27 26 25 24 24 24 26 27 29 30 27 27 28 25 20 21 22 20 18 19 21 20 21 19 19 19 21 23
20 21 21 21 22 22 23 21 21 26 29 30 29 29 28 29 28 28 27 25 26 27 24 24 25 27 28 27 25 26 25 21 20 19 19 20 20 20 19 22 20 20 20 23 25
21 21 21 23 23 22 22 20 23 26 30 29 28 27 27 29 28 28 27 26 28 27 24 23 25 30 30 29 27 26 23 23 19 21 19 20 20 20 20 20 20 20 20 21 22
20 22 23 23 23 22 21 20 24 27 29 29 26 28 28 28 27 26 27 29 28 28 28 26 23 27 29 29 26 23 23 20 20 20 19 20 19 18 18 17 18 21 22 20 20
20 21 24 24 23 23 20 22 25 27 29 28 27 26 28 28 28 27 28 28 29 28 28 27 25 24 28 23 23 21 20 20 19 18 18 18 19 18 16 16 17 19 23 22 22
18 19 25 24 23 24 22 24 26 27 29 28 27 27 27 27 26 28 27 27 28 28 25 24 23 21 22 23 23 21 20 19 17 19 17 17 17 19 17 17 16 18 19 21 21
16 18 24 24 22 22 24 26 27 28 28 27 27 27 28 26 26 27 28 28 28 27 24 24 20 19 22 22 22 22 21 19 19 20 17 17 20 17 17 15 15 20 20 19 19
14 18 24 24 25 24 23 24 25 28 29 29 28 29 27 27 26 26 26 28 27 25 26 25 22 20 19 23 22 21 22 23 21 18 17 19 22 19 16 16 15 18 19 18 17
15 19 19 19 20 20 22 23 25 25 28 29 27 27 27 24 25 24 26 26 27 25 26 23 21 22 22 25 22 23 24 24 20 21 19 21 18 16 14 16 17 17 18 16 16
15 16 16 17 20 20 21 22 24 26 26 26 25 27 26 25 25 24 25 24 25 23 26 24 21 22 22 25 25 25 26 24 23 22 20 20 18 18 17 17 18 16 16 15 14
14 15 15 16 18 19 21 22 23 25 25 26 27 26 25 26 27 27 26 26 25 24 23 22 20 19 20 22 24 23 25 26 23 21 19 18 19 17 17 18 17 15 15 15 15
Height
1520 1518 1516 1515 1513 1511 1509 1507 1506 1504 1503 1501 1500 1499 1499 1499 1499 1498 1498 1499 1500 1501 1503 1504 1504 1503 1509 1521 1522 1533 1538 1535 1523 1518 1512 1501 1503 1506 1511 1513 1518 1518 1525 1531 1538
1520 1518 1516 1515 1513 1511 1509 1507 1506 1504 1502 1501 1499 1499 1498 1497 1497 1496 1497 1498 1499 1501 1503 1503 1502 1504 1511 1520 1528 1528 1542 1531 1524 1522 1518 1507 1504 1507 1511 1515 1521 1524 1529 1533 1538
1520 1518 1516 1515 1513 1511 1509 1507 1506 1504 1502 1500 1499 1498 1498 1497 1498 1495 1495 1497 1498 1499 1502 1502 1500 1502 1507 1510 1523 1526 1527 1524 1524 1513 1515 1511 1507 1506 1508 1516 1518 1524 1529 1534 1538
1520 1518 1516 1514 1512 1510 1509 1507 1505 1504 1502 1500 1499 1498 1498 1499 1499 1495 1495 1496 1497 1499 1501 1500 1500 1500 1505 1509 1522 1521 1519 1521 1522 1518 1517 1512 1507 1510 1510 1516 1520 1525 1530 1534 1538
1520 1518 1515 1513 1512 1510 1508 1507 1505 1503 1501 1500 1499 1499 1499 1500 1497 1495 1494 1494 1496 1498 1500 1499 1500 1499 1505 1510 1516 1516 1517 1515 1517 1520 1514 1517 1509 1510 1513 1521 1522 1527 1531 1536 1537
1520 1517 1515 1513 1511 1510 1508 1506 1504 1502 1501 1500 1499 1500 1501 1501 1496 1495 1494 1495 1496 1498 1497 1498 1500 1496 1500 1509 1511 1513 1517 1514 1519 1519 1521 1513 1514 1513 1515 1521 1525 1527 1532 1536 1538
1520 1517 1514 1512 1511 1509 1508 1506 1504 1502 1501 1501 1501 1501 1501 1499 1497 1495 1495 1496 1496 1497 1497 1498 1500 1497 1500 1507 1497 1501 1510 1511 1518 1521 1519 1517 1518 1516 1517 1520 1525 1527 1532 1536 1540
1519 1516 1514 1512 1511 1509 1508 1506 1504 1503 1502 1502 1502 1502 1498 1497 1497 1497 1496 1496 1497 1498 1498 1497 1496 1496 1497 1498 1503 1516 1515 1523 1518 1521 1523 1523 1537 1518 1523 1521 1524 1528 1533 1536 1541
1519 1516 1514 1513 1512 1510 1508 1507 1506 1506 1505 1504 1504 1503 1499 1496 1496 1495 1496 1497 1497 1498 1497 1498 1498 1497 1495 1500 1511 1516 1523 1521 1520 1518 1521 1525 1536 1522 1520 1524 1523 1524 1529 1533 1538
1519 1516 1515 1514 1512 1511 1510 1509 1508 1507 1506 1505 1504 1507 1497 1495 1495 1496 1497 1496 1497 1497 1498 1497 1497 1496 1494 1502 1529 1522 1523 1526 1532 1522 1522 1525 1529 1527 1523 1525 1528 1525 1528 1531 1534
1519 1517 1516 1515 1513 1512 1511 1509 1510 1508 1505 1499 1497 1494 1493 1495 1495 1496 1497 1496 1496 1497 1499 1494 1501 1505 1493 1486 1489 1499 1516 1529 1528 1524 1525 1523 1527 1530 1530 1528 1526 1525 1523 1529 1532
1520 1518 1517 1516 1514 1512 1511 1509 1508 1508 1502 1495 1494 1493 1492 1493 1494 1495 1496 1497 1495 1498 1493 1499 1504 1487 1483 1482 1485 1488 1514 1525 1527 1512 1518 1520 1524 1526 1523 1519 1520 1528 1528 1525 1532
1521 1518 1517 1516 1515 1513 1511 1509 1507 1506 1503 1492 1490 1491 1491 1492 1491 1492 1494 1492 1492 1494 1492 1498 1488 1480 1479 1483 1488 1488 1503 1514 1514 1515 1512 1519 1527 1527 1521 1519 1517 1520 1526 1531 1524
1521 1518 1517 1516 1516 1512 1509 1508 1508 1506 1510 1492 1488 1489 1490 1488 1490 1490 1492 1493 1490 1491 1486 1487 1478 1478 1479 1485 1485 1500 1487 1493 1502 1514 1533 1518 1546 1526 1519 1517 1512 1513 1519 1529 1524
1520 1518 1516 1515 1513 1512 1511 1507 1508 1506 1535 1482 1484 1486 1484 1487 1488 1490 1491 1490 1489 1486 1482 1490 1481 1480 1484 1486 1480 1492 1480 1486 1493 1509 1516 1522 1535 1525 1520 1519 1516 1513 1512 1524 1527
1518 1516 1515 1514 1511 1511 1510 1508 1507 1516 1522 1482 1480 1482 1484 1482 1483 1488 1489 1490 1487 1484 1479 1480 1476 1476 1478 1476 1477 1477 1484 1488 1488 1505 1532 1514 1524 1530 1525 1513 1513 1513 1509 1515 1524
1515 1513 1511 1511 1509 1511 1510 1508 1517 1523 1473 1480 1479 1475 1477 1480 1481 1483 1487 1490 1495 1502 1499 1482 1478 1474 1476 1484 1479 1481 1495 1533 1534 1527 1539 1524 1531 1515 1507 1506 1509 1507 1506 1511 1517
1512 1509 1508 1507 1508 1511 1510 1511 1524 1490 1476 1469 1474 1474 1479 1475 1477 1478 1483 1490 1481 1481 1493 1499 1499 1476 1474 1482 1490 1489 1494 1523 1546 1549 1540 1520 1531 1518 1508 1506 1507 1511 1510 1509 1509
1508 1506 1503 1502 1505 1510 1513 1520 1504 1483 1471 1473 1475 1484 1481 1474 1479 1479 1481 1481 1475 1478 1499 1501 1492 1469 1469 1472 1478 1487 1504 1495 1524 1521 1538 1525 1519 1510 1508 1508 1508 1503 1507 1507 1510
1507 1504 1500 1501 1505 1508 1511 1513 1496 1480 1475 1476 1489 1476 1481 1478 1484 1482 1480 1472 1477 1476 1479 1488 1508 1477 1472 1472 1479 1491 1493 1519 1519 1540 1551 1532 1529 1532 1515 1509 1505 1501 1499 1505 1512
1507 1504 1495 1498 1504 1506 1511 1501 1489 1479 1476 1482 1483 1483 1476 1478 1475 1480 1478 1475 1474 1479 1479 1482 1492 1495 1475 1493 1499 1502 1509 1511 1519 1530 1546 1552 1538 1521 1520 1513 1510 1508 1502 1503 1504
1509 1506 1497 1498 1504 1500 1500 1491 1486 1481 1476 1480 1480 1478 1479 1476 1480 1479 1480 1477 1479 1481 1492 1490 1494 1510 1506 1493 1495 1500 1509 1512 1533 1532 1534 1541 1534 1512 1512 1512 1517 1514 1504 1503 1505
1511 1504 1494 1497 1500 1498 1491 1485 1483 1479 1476 1476 1479 1476 1474 1479 1488 1479 1477 1478 1479 1483 1492 1491 1507 1523 1511 1501 1495 1501 1501 1505 1509 1514 1533 1541 1525 1510 1514 1519 1519 1513 1505 1507 1508
1516 1507 1495 1494 1492 1491 1490 1486 1483 1473 1470 1471 1472 1472 1475 1480 1479 1484 1481 1478 1479 1483 1486 1488 1499 1511 1527 1505 1497 1507 1499 1496 1504 1523 1526 1522 1511 1512 1516 1518 1528 1523 1512 1506 1503
1518 1507 1508 1501 1495 1496 1491 1486 1480 1479 1470 1468 1471 1474 1477 1488 1484 1485 1479 1477 1477 1479 1484 1488 1505 1498 1493 1485 1488 1489 1489 1490 1505 1503 1515 1506 1514 1516 1520 1515 1515 1521 1518 1512 1508
1520 1516 1510 1505 1500 1495 1490 1485 1480 1472 1472 1469 1472 1471 1473 1479 1480 1484 1479 1482 1483 1484 1483 1483 1502 1495 1496 1483 1483 1486 1479 1481 1487 1495 1501 1503 1508 1503 1506 1507 1506 1510 1510 1513 1515
1519 1517 1514 1506 1502 1498 1491 1485 1479 1474 1467 1468 1462 1473 1470 1471 1471 1473 1475 1478 1481 1484 1487 1489 1498 1505 1511 1492 1490 1497 1478 1475 1483 1492 1497 1509 1497 1499 1506 1502 1504 1509 1510 1513 1514
Wind_Speed
10 10 11 11 10 9 9 9 9 8 6 5 4 5 6 7 7 8 7 6 9 8 4 3 1 6 7 11 27 10 3 2 5 9 7 21 10 22 29 24 15 8 31 29 32
10 10 11 11 10 10 9 9 8 8 6 5 4 4 5 6 8 13 8 7 12 13 6 4 8 11 3 17 15 10 4 4 3 8 10 6 13 22 20 20 14 28 27 32 28
10 10 11 11 10 10 9 8 8 8 7 5 4 4 5 5 5 4 6 8 12 8 6 4 10 14 7 12 10 12 6 7 5 15 11 12 9 16 19 14 27 28 28 33 27
11 11 11 11 10 9 8 9 9 8 7 5 4 3 4 2 4 3 8 7 7 7 9 4 10 13 4 4 7 11 8 15 17 19 9 13 10 8 23 25 34 31 26 28 26
13 12 11 11 9 8 8 9 9 7 6 4 3 2 2 3 7 8 3 5 8 8 8 8 16 12 6 12 12 9 7 16 15 9 11 19 13 5 19 24 32 28 24 21 16
14 13 12 10 8 8 8 9 8 6 4 3 1 1 1 5 6 8 2 6 6 4 4 10 8 9 12 16 3 3 7 11 19 16 15 1 9 5 20 30 26 29 23 17 18
15 14 12 8 6 7 8 8 7 4 1 2 3 1 5 3 4 7 3 5 4 4 15 18 15 7 10 5 13 9 2 6 9 9 4 7 4 4 24 28 26 24 23 18 11
18 14 9 5 5 6 6 6 6 4 6 5 2 6 6 4 4 4 5 6 5 9 11 11 13 8 4 13 6 7 6 4 3 3 5 4 2 19 8 19 24 25 14 22 23
18 12 6 4 6 5 4 3 4 4 2 1 2 6 9 5 6 6 6 6 5 7 7 9 8 8 6 5 4 1 4 4 1 6 5 1 4 20 12 10 9 27 32 26 24
18 10 4 5 6 4 3 2 2 3 5 8 11 9 7 7 2 7 5 7 5 6 7 8 5 4 5 4 5 5 4 6 4 5 5 5 4 5 15 12 13 25 27 27 22
17 9 3 4 4 3 5 8 8 4 13 12 12 6 7 2 3 6 4 4 6 7 6 14 3 7 12 3 6 12 14 12 5 13 6 5 8 16 18 16 7 5 29 26 29
16 8 3 3 2 4 10 7 9 12 10 16 7 3 4 8 8 7 5 8 7 7 11 5 8 13 10 5 6 9 20 9 5 11 10 5 2 4 6 6 11 3 5 29 30
15 10 5 5 4 7 13 9 8 12 5 12 15 9 4 10 9 12 9 10 10 7 10 9 11 13 12 5 6 7 16 12 9 13 2 6 2 4 4 8 17 19 12 13 35
14 11 7 7 6 10 15 6 10 10 3 6 6 6 7 11 2 9 7 15 8 8 11 7 12 13 6 2 4 5 11 13 12 9 4 7 3 6 6 9 9 20 20 6 32
16 12 9 10 9 8 12 9 13 13 4 14 5 5 3 7 12 7 6 8 9 9 2 11 6 5 4 7 7 7 7 8 12 9 6 7 2 3 5 9 9 15 29 13 19
17 14 10 12 16 6 20 17 15 1 6 5 10 9 9 17 9 7 5 7 15 9 7 8 17 3 1 8 2 8 8 7 4 5 3 6 7 4 6 13 16 21 33 31 35
18 14 13 13 16 5 10 14 3 3 2 7 7 9 12 7 8 9 9 7 5 2 6 8 11 4 2 7 7 3 2 4 5 3 1 8 6 3 7 8 17 27 37 39 42
19 14 14 16 15 7 9 6 5 11 6 5 4 5 6 6 5 7 6 7 10 6 4 6 6 9 7 6 7 5 5 3 1 2 3 3 1 5 7 11 13 18 27 30 37
20 12 13 6 13 7 8 3 5 9 9 5 7 6 8 7 2 4 8 5 5 5 5 6 8 2 7 5 6 5 5 8 6 2 2 1 3 4 7 8 18 26 23 27 23
23 13 18 6 7 6 4 8 9 14 6 6 8 5 4 8 7 6 6 4 4 8 5 5 6 9 5 6 12 8 3 6 4 2 3 2 2 4 11 12 10 18 21 32 34
18 7 12 14 18 12 5 8 15 30 5 4 9 10 4 4 3 6 3 5 4 5 7 4 0 8 1 7 5 6 3 4 3 4 3 2 2 4 5 10 12 21 11 25 28
9 4 10 18 10 9 9 14 23 26 9 3 6 7 7 6 6 2 3 6 12 10 4 7 3 4 16 12 8 4 2 4 4 3 3 3 5 7 4 13 23 30 14 22 34
20 10 13 12 7 7 14 21 26 14 6 8 7 7 6 5 4 5 2 12 9 4 3 4 4 5 3 2 2 2 3 5 4 2 6 5 4 9 12 11 40 3 4 7 19
8 4 7 17 18 10 12 15 18 21 11 12 3 1 4 3 6 5 7 2 13 11 9 4 3 6 5 4 4 3 6 6 5 2 5 5 5 8 8 10 21 25 7 7 9
3 5 14 5 11 16 17 15 17 16 17 14 4 5 3 5 6 6 8 7 8 15 6 5 3 6 10 8 6 8 9 11 7 6 6 3 4 4 5 10 22 14 9 9 6
5 7 18 22 17 13 12 13 16 16 12 7 7 8 9 5 5 6 3 5 4 5 4 1 3 4 6 9 7 6 13 13 12 4 2 4 5 6 6 10 10 12 7 8 8
10 10 9 11 11 10 10 15 19 20 20 21 6 12 8 0 4 8 12 9 7 4 4 3 3 5 5 8 8 6 3 1 8 8 6 3 3 9 6 4 13 14 8 1 3
Wind_Direction
6 6 6 4 2 358 357 356 354 351 344 326 296 272 262 263 258 252 238 242 287 302 281 186 258 297 274 87 78 27 338 303 322 36 307 107 109 147 129 115 126 130 143 146 136
353 355 354 354 354 350 350 352 351 345 341 327 305 275 259 257 260 251 227 260 283 280 248 222 275 266 166 113 119 121 249 248 346 297 287 316 131 134 131 127 117 128 144 148 146
349 347 345 346 348 346 345 347 345 340 333 323 306 271 250 263 301 274 264 267 278 259 211 267 294 297 96 105 157 170 207 176 185 260 281 305 99 137 139 126 145 152 144 144 153
352 345 341 341 344 346 342 341 340 337 330 319 304 267 264 232 28 303 288 266 233 203 183 321 285 276 87 148 104 40 259 166 168 197 301 347 81 61 117 144 149 143 144 152 157
353 346 341 337 339 341 340 338 333 329 318 317 304 278 244 297 273 330 326 206 195 197 209 262 279 279 150 120 88 142 275 179 163 102 0 314 52 49 128 152 145 141 152 156 161
352 345 339 336 340 344 343 340 335 328 314 311 304 171 241 278 313 326 200 167 150 178 286 271 279 334 70 107 159 229 293 110 96 134 184 346 331 21 136 151 151 147 156 170 160
352 345 339 340 347 348 346 348 352 354 13 102 116 207 274 273 327 328 93 128 89 273 275 295 307 281 137 166 185 235 238 127 112 111 144 170 341 338 138 144 148 162 146 151 169
353 348 348 0 355 347 349 358 17 55 117 116 91 332 283 225 199 249 272 279 298 257 281 305 331 294 313 115 81 31 248 79 138 149 187 235 346 293 332 158 165 155 149 156 160
356 356 10 16 353 341 353 9 56 84 135 224 319 318 283 262 210 202 210 225 236 270 279 297 323 281 266 155 42 326 117 106 348 142 139 242 174 265 334 346 180 151 161 163 165
1 5 22 5 4 14 359 343 312 215 228 260 257 299 244 254 183 189 242 235 227 252 250 266 263 234 272 207 180 182 131 61 31 9 206 153 138 132 207 312 308 162 163 164 172
2 4 1 3 25 10 334 310 304 257 246 226 276 261 124 123 166 218 215 232 238 249 233 224 227 242 251 78 169 159 114 123 134 263 282 229 162 192 219 249 300 322 161 172 176
358 352 313 320 318 322 332 318 352 329 307 264 246 197 186 203 183 191 220 240 194 235 234 266 228 250 276 197 227 184 139 130 181 228 232 126 204 205 247 228 256 324 265 168 173
349 341 284 271 278 295 311 309 350 333 291 278 226 189 164 224 219 167 214 226 241 242 250 224 254 242 247 294 313 266 158 168 162 206 67 121 213 210 217 243 239 262 260 254 171
337 332 286 267 282 294 304 8 339 331 309 222 207 162 197 228 135 164 214 250 271 241 244 225 277 288 97 298 262 314 131 160 145 160 196 184 230 216 183 236 241 254 253 301 179
325 317 293 261 279 301 343 353 321 315 289 171 142 159 169 246 146 186 208 283 269 292 316 251 241 242 316 292 299 253 175 189 166 187 130 198 166 204 122 205 226 241 243 231 216
322 303 291 265 257 276 327 333 309 265 247 137 149 187 215 229 135 138 197 246 268 288 287 253 290 350 274 295 341 359 346 330 242 145 227 212 169 205 183 206 192 213 243 243 235
326 293 278 252 241 292 340 317 301 220 245 157 185 190 211 188 151 173 188 211 224 212 264 261 238 201 187 323 321 222 297 303 325 354 199 49 344 276 182 181 189 200 221 229 232
329 295 275 259 239 263 318 311 250 261 237 95 22 334 283 147 182 197 194 219 227 244 274 262 248 204 163 187 244 302 211 135 11 287 323 355 322 290 343 187 198 216 241 229 232
335 304 280 247 213 219 282 269 256 307 12 9 162 245 262 145 141 185 230 268 138 77 36 351 358 236 152 167 159 271 351 138 111 132 281 199 353 302 359 1 350 252 246 240 250
337 307 266 172 186 184 228 245 275 288 14 2 309 288 319 153 183 208 210 112 46 76 44 305 345 303 72 18 48 93 335 25 21 60 307 243 161 266 324 319 325 301 197 208 238
336 310 289 191 181 212 237 252 275 277 130 306 312 321 315 313 335 340 271 125 107 75 32 334 118 294 320 37 37 13 41 70 165 99 128 353 343 244 299 309 320 302 232 204 232
4 293 115 163 191 224 241 255 269 284 119 247 300 308 313 355 2 198 353 78 57 46 21 8 271 357 84 78 69 99 130 128 119 181 120 142 258 169 143 302 329 286 128 186 189
336 279 257 242 217 241 258 266 270 270 256 179 220 222 285 2 359 313 337 131 122 72 78 21 338 337 183 116 80 313 169 179 194 213 194 149 269 166 163 70 353 6 344 224 207
332 301 308 279 247 246 269 284 297 295 215 268 287 326 43 359 294 290 310 133 123 128 146 119 220 216 239 207 159 221 214 192 158 188 139 202 253 58 63 118 266 311 34 1 302
281 298 2 312 337 329 314 313 275 290 288 217 176 264 226 239 266 253 224 254 183 146 158 152 226 276 279 290 175 207 206 203 182 210 158 213 82 103 173 163 153 262 5 35 35
299 347 337 303 314 316 311 301 300 274 278 230 192 217 218 235 251 280 27 43 82 247 202 243 247 307 275 291 354 308 236 183 206 99 4 141 173 155 198 181 138 113 94 29 355
295 314 344 291 304 299 287 295 304 310 306 319 215 269 225 267 215 92 61 22 333 335 308 62 51 19 300 342 333 309 329 192 164 177 138 115 191 186 209 182 128 110 91 165 282